Torna al catalogo

STARLINK-34701

AttivoComunicazioniSSO
NORAD 64953·PAYLOAD·🇺🇸 United States

Lanciato Jul 26, 2025 da Vandenberg Space Force Base

Loading…

Prossimi Passaggi (prossime 24 ore)

TLE

AggiornatoSource: CelesTrak SupGP

Epoca: Sep 15, 2026, 03:25 UTC

1 64953C 25158X   26258.14284722 -.00008272  00000+0 -25675-3 0  2587
2 64953  97.2846 116.5113 0001517  92.0592 284.9341 15.33448131    19

Traccia STARLINK-34701 in tempo reale con AllMySat

Download on the App Store